CW9769 Weather Reports


Display with metric or nautical units.
time (UTC)temp
F
wind
direction
speed
MPH
gust
MPH
rain 1hr
in
rain 24hr
in
rain mn
in
humidity
%
barometer
mb
20260507003031 49 23 0.0 1.0 0.00 0.51 0.18 63 1012.4
20260507001959 49 23 0.0 2.0 0.00 0.52 0.18 66 1012.4
20260507000958 49 23 1.0 2.0 0.00 0.52 0.18 63 1012.8
20260506235958 50 23 2.0 4.0 0.00 0.54 0.18 61 1012.8
20260506234957 50 10 3.0 5.0 0.00 0.55 0.18 62 1012.8
20260506233957 50 35 2.0 5.0 0.00 0.59 0.18 60 1012.8
20260506232956 50 19 4.0 6.0 0.00 0.61 0.18 59 1012.8
20260506231853 50 33 3.0 10.0 0.00 0.61 0.18 61 1012.4
20260506230852 51 38 5.0 10.0 0.00 0.61 0.18 57 1012.4
20260506225851 51 26 3.0 9.0 0.00 0.61 0.18 58 1012.4
20260506224850 51 21 6.0 9.0 0.00 0.62 0.18 59 1012.5
20260506223850 51 41 5.0 10.0 0.00 0.63 0.18 57 1012.5
20260506222848 51 22 5.0 13.0 0.00 0.64 0.18 57 1012.8
20260506221847 51 23 7.0 12.0 0.00 0.66 0.18 57 1012.8
20260506220846 51 10 9.0 12.0 0.00 0.71 0.18 54 1012.5
20260506215814 51 39 6.0 12.0 0.00 0.72 0.18 55 1012.5
20260506214813 52 3 9.0 14.0 0.00 0.74 0.18 56 1012.1
20260506213812 52 19 10.0 14.0 0.00 0.76 0.18 53 1011.8
20260506212811 52 22 7.0 11.0 0.00 0.78 0.18 55 1011.8
20260506211810 53 44 7.0 11.0 0.00 0.80 0.18 57 1011.5
20260506210809 53 10 7.0 12.0 0.00 0.83 0.18 57 1011.5
20260506205809 54 2 9.0 12.0 0.00 0.85 0.18 55 1011.2
20260506204737 54 23 4.0 9.0 0.00 0.87 0.18 55 1011.6
20260506203736 54 19 5.0 8.0 0.00 0.91 0.18 53 1011.2
20260506202736 54 8 4.0 8.0 0.00 0.95 0.18 59 1011.6
20260506201734 54 18 5.0 10.0 0.00 0.97 0.18 58 1011.6
20260506200734 53 18 5.0 10.0 0.00 1.00 0.18 57 1011.5
20260506195733 54 20 5.0 10.0 0.00 1.03 0.18 55 1011.6
20260506194732 54 22 3.0 12.0 0.00 1.05 0.18 51 1011.6
20260506193629 54 16 7.0 12.0 0.00 1.07 0.18 54 1011.6
20260506192628 55 30 5.0 10.0 0.00 1.09 0.18 54 1011.6
20260506191556 55 339 7.0 10.0 0.00 1.10 0.18 55 1011.6
20260506190556 54 325 2.0 9.0 0.00 1.11 0.18 51 1011.6
20260506185555 55 39 5.0 10.0 0.00 1.12 0.18 52 1011.6
20260506184555 55 26 5.0 11.0 0.00 1.13 0.18 54 1011.6
20260506183554 55 43 6.0 14.0 0.00 1.14 0.18 52 1011.6
20260506182553 55 11 9.0 12.0 0.00 1.14 0.18 53 1011.6
20260506181552 55 46 4.0 13.0 0.00 1.14 0.18 57 1011.6
20260506180550 55 43 4.0 15.0 0.00 1.14 0.18 52 1011.9
20260506175549 55 25 8.0 15.0 0.00 1.14 0.18 54 1011.9
20260506174548 54 44 10.0 15.0 0.00 1.14 0.18 54 1011.9
20260506173547 54 40 12.0 15.0 0.00 1.14 0.18 55 1011.6
20260506172547 55 13 9.0 13.0 0.00 1.14 0.18 57 1011.9
20260506171514 54 37 7.0 14.0 0.00 1.14 0.18 54 1011.6
20260506170514 54 18 5.0 14.0 0.00 1.14 0.18 58 1011.9
20260506165512 54 9 7.0 16.0 0.00 1.14 0.18 55 1011.9
20260506164512 55 8 10.0 16.0 0.00 1.14 0.18 54 1011.9
20260506163511 54 24 7.0 14.0 0.00 1.14 0.18 59 1011.6
20260506162510 54 18 8.0 14.0 0.00 1.14 0.18 68 1011.6
20260506161509 54 33 8.0 14.0 0.00 1.14 0.18 65 1011.3
20260506160509 55 10 8.0 14.0 0.00 1.14 0.18 63 1011.3
20260506155437 54 7 10.0 14.0 0.00 1.14 0.18 66 1011.3
20260506154436 54 22 8.0 15.0 0.00 1.14 0.18 63 1011.0
20260506153405 54 53 8.0 15.0 0.00 1.14 0.18 64 1011.3
20260506152403 54 26 9.0 14.0 0.00 1.14 0.18 67 1011.3
20260506151403 53 40 11.0 14.0 0.00 1.14 0.18 69 1011.0
20260506150402 53 39 10.0 14.0 0.00 1.14 0.18 73 1010.6
20260506145401 53 0 8.0 15.0 0.00 1.14 0.18 74 1010.6
20260506144400 52 12 9.0 15.0 0.00 1.14 0.18 80 1010.6
20260506143359 51 356 9.0 14.0 0.00 1.14 0.18 80 1010.6
20260506142359 50 356 8.0 13.0 0.00 1.14 0.18 80 1010.6
20260506141358 49 347 9.0 12.0 0.00 1.14 0.18 80 1010.5
20260506140358 49 357 7.0 11.0 0.00 1.14 0.18 83 1010.2
20260506135254 48 350 7.0 14.0 0.00 1.14 0.18 82 1010.2
20260506134253 48 357 7.0 14.0 0.00 1.14 0.18 81 1010.2
20260506133252 48 352 7.0 13.0 0.00 1.14 0.18 82 1010.2
20260506132252 48 342 9.0 13.0 0.00 1.14 0.18 82 1010.2
20260506131251 48 341 7.0 11.0 0.00 1.14 0.18 82 1009.8
20260506130250 47 352 6.0 10.0 0.00 1.14 0.18 84 1009.8
20260506125249 46 350 5.0 10.0 0.00 1.14 0.18 86 1009.4
20260506124249 46 353 4.0 9.0 0.00 1.14 0.18 88 1009.1
20260506123217 45 354 6.0 9.0 0.00 1.14 0.18 88 1009.1
20260506122216 45 354 5.0 9.0 0.00 1.14 0.18 89 1008.7
20260506121215 45 348 5.0 9.0 0.00 1.14 0.18 89 1008.7
20260506120214 45 349 6.0 9.0 0.00 1.14 0.18 89 1008.7
20260506115142 45 342 5.0 9.0 0.00 1.14 0.18 92 1008.7
20260506114141 45 339 6.0 7.0 0.00 1.14 0.18 92 1008.8
20260506113141 45 332 3.0 7.0 0.00 1.14 0.18 93 1008.7
20260506112140 45 330 2.0 4.0 0.00 1.14 0.18 93 1008.4
20260506111139 45 332 2.0 4.0 0.00 1.14 0.18 92 1008.1
20260506110138 45 318 1.0 3.0 0.00 1.14 0.18 92 1007.7
20260506105137 45 325 2.0 5.0 0.00 1.14 0.18 92 1007.7
20260506104136 45 342 2.0 7.0 0.00 1.14 0.18 92 1007.7
20260506103135 45 359 5.0 7.0 0.00 1.14 0.18 92 1007.4
20260506102135 45 15 3.0 10.0 0.00 1.14 0.18 92 1007.1
20260506101134 45 358 5.0 10.0 0.00 1.14 0.18 93 1007.8
20260506100133 45 349 8.0 10.0 0.00 1.14 0.18 93 1007.8
20260506095132 45 359 4.0 5.0 0.00 1.14 0.18 93 1007.2
20260506094130 45 32 1.0 2.0 0.00 1.14 0.18 93 1006.5
20260506093129 45 0 1.0 3.0 0.01 1.14 0.18 93 1006.9
20260506092128 45 7 1.0 3.0 0.01 1.14 0.18 93 1007.3
20260506091128 45 9 2.0 7.0 0.01 1.14 0.18 93 1007.6
20260506090127 45 4 3.0 7.0 0.01 1.14 0.18 92 1007.9
20260506085055 45 1 3.0 5.0 0.03 1.14 0.18 93 1007.9
20260506084054 45 356 3.0 5.0 0.04 1.14 0.18 93 1007.9
20260506083053 45 3 3.0 5.0 0.04 1.13 0.17 92 1007.6
20260506082053 45 10 4.0 8.0 0.04 1.13 0.17 92 1007.6
20260506081052 45 9 4.0 8.0 0.05 1.13 0.17 92 1007.3
20260506073049 46 7 5.0 8.0 0.05 1.09 0.13 92 1007.7
20260506072048 46 27 4.0 8.0 0.06 1.09 0.13 93 1007.3
20260506071017 46 13 3.0 5.0 0.06 1.08 0.12 93 1007.7
20260506061911 46 70 1.0 3.0 0.04 1.03 0.07 93 1007.4
20260506060910 46 30 1.0 3.0 0.04 1.02 0.06 93 1007.5
20260506050659 46 64 1.0 4.0 0.02 0.98 0.02 91 1007.9
20260506044658 46 49 1.0 2.0 0.03 0.98 0.02 91 1007.5
20260506043658 46 90 2.0 3.0 0.03 0.97 0.01 90 1007.9
20260506042657 46 79 1.0 4.0 0.03 0.96 0.00 90 1007.9
20260506041656 46 87 1.0 6.0 0.04 0.96 0.00 89 1007.9
20260506040656 47 69 3.0 8.0 0.05 0.96 0.00 89 1007.9
20260506035655 48 55 5.0 9.0 0.06 0.95 0.95 90 1008.3
20260506034654 48 60 4.0 9.0 0.07 0.95 0.95 90 1008.3
20260506033654 48 53 3.0 5.0 0.09 0.94 0.94 93 1008.7
20260506032653 48 29 3.0 5.0 0.10 0.93 0.93 93 1008.7
20260506031652 48 15 1.0 5.0 0.11 0.92 0.92 94 1008.7
20260506030651 48 356 2.0 7.0 0.14 0.91 0.91 93 1008.7
20260506025651 49 5 3.0 7.0 0.14 0.89 0.89 93 1008.7
20260506024650 49 18 3.0 7.0 0.14 0.88 0.88 94 1008.7
20260506023649 49 18 2.0 4.0 0.14 0.85 0.85 94 1008.7
20260506022648 49 65 1.0 2.0 0.15 0.83 0.83 94 1008.7
20260506021647 49 65 0.0 4.0 0.15 0.81 0.81 94 1008.7
20260506020647 49 58 1.0 4.0 0.12 0.77 0.77 94 1008.3
20260506015615 49 55 1.0 2.0 0.11 0.75 0.75 94 1008.0
20260506014543 49 89 1.0 2.0 0.10 0.73 0.73 94 1007.6
20260506013542 49 82 0.0 2.0 0.07 0.70 0.70 94 1007.6
20260506012510 49 112 1.0 3.0 0.05 0.67 0.67 94 1007.6
20260506011336 49 90 1.0 4.0 0.04 0.66 0.66 94 1007.6
20260506010334 49 106 2.0 4.0 0.05 0.65 0.65 93 1007.6
20260506005333 49 78 2.0 3.0 0.05 0.64 0.64 93 1007.6
20260506004331 49 88 1.0 4.0 0.06 0.63 0.63 93 1007.6